When you browse on this site, cookies collect data to enhance your experience and personalize the content and advertising you see.
Visit our Privacy Policy to learn more. By continuing to use the site, you agree to this use of cookies and data.
  • In Spain
  • List of Countries
  • For 7 days
  • Water Temperature
  • Weather Map
  • Weather Widgets
  • user-avatar
    Login

    Hourly Weather Braga

    Today, 25 May, Monday

    Time Temperature Precipitation Wind Pressure Humidity
    00:00 +20°C° 0 mm 1 mps 756 mmHg 80%
    01:00 +20°C° 0 mm 1 mps 756 mmHg 82%
    02:00 +20°C° 0 mm 1 mps 756 mmHg 83%
    03:00 +20°C° 0 mm 1 mps 756 mmHg 83%
    04:00 +20°C° 0 mm 1 mps 756 mmHg 83%
    05:00 +21°C° 0 mm 1 mps 756 mmHg 82%
    06:00 +23°C° 0 mm 1 mps 756 mmHg 73%
    07:00 +26°C° 0 mm 1 mps 756 mmHg 65%
    08:00 +28°C° 0 mm 1 mps 756 mmHg 57%
    09:00 +29°C° 0 mm 1 mps 756 mmHg 52%
    10:00 +31°C° 0 mm 2 mps 756 mmHg 48%
    11:00 +32°C° 0 mm 2 mps 756 mmHg 43%
    12:00 +32°C° 0 mm 2 mps 756 mmHg 43%
    13:00 +33°C° 0 mm 3 mps 755 mmHg 42%
    14:00 +33°C° 0 mm 3 mps 755 mmHg 41%
    15:00 +31°C° 0 mm 3 mps 755 mmHg 44%
    16:00 +31°C° 0 mm 3 mps 755 mmHg 47%
    17:00 +30°C° 0 mm 4 mps 754 mmHg 50%
    18:00 +28°C° 0 mm 3 mps 755 mmHg 55%
    19:00 +25°C° 0 mm 3 mps 755 mmHg 60%
    20:00 +22°C° 0 mm 3 mps 756 mmHg 65%
    21:00 +22°C° 0 mm 3 mps 756 mmHg 63%
    22:00 +21°C° 0 mm 3 mps 756 mmHg 61%
    23:00 +21°C° 0 mm 3 mps 756 mmHg 59%

    Tomorrow, 26 May, Tuesday

    Time Temperature Precipitation Wind Pressure Humidity
    00:00 +20°C° 0 mm 3 mps 756 mmHg 56%
    01:00 +20°C° 0 mm 3 mps 756 mmHg 52%
    02:00 +19°C° 0 mm 3 mps 755 mmHg 49%
    03:00 +19°C° 0 mm 3 mps 756 mmHg 50%
    04:00 +18°C° 0 mm 3 mps 756 mmHg 51%
    05:00 +18°C° 0 mm 3 mps 756 mmHg 51%
    06:00 +20°C° 0 mm 3 mps 756 mmHg 48%
    07:00 +22°C° 0 mm 3 mps 756 mmHg 45%
    08:00 +26°C° 0 mm 4 mps 756 mmHg 42%
    09:00 +27°C° 0 mm 4 mps 756 mmHg 40%
    10:00 +29°C° 0 mm 3 mps 756 mmHg 38%
    11:00 +30°C° 0 mm 3 mps 755 mmHg 35%
    12:00 +31°C° 0 mm 3 mps 755 mmHg 35%
    13:00 +33°C° 0 mm 3 mps 755 mmHg 35%
    14:00 +33°C° 0 mm 3 mps 754 mmHg 35%
    15:00 +33°C° 0 mm 3 mps 754 mmHg 39%
    16:00 +31°C° 0 mm 3 mps 754 mmHg 43%
    17:00 +31°C° 0 mm 3 mps 753 mmHg 47%
    18:00 +29°C° 0 mm 3 mps 754 mmHg 51%
    19:00 +27°C° 0 mm 3 mps 754 mmHg 55%
    20:00 +25°C° 0 mm 3 mps 754 mmHg 59%
    21:00 +24°C° 0 mm 3 mps 754 mmHg 61%
    22:00 +23°C° 0 mm 4 mps 754 mmHg 62%
    23:00 +22°C° 0 mm 4 mps 754 mmHg 63%

    Day after tomorrow, 27 May, Wednesday

    Time Temperature Precipitation Wind Pressure Humidity
    00:00 +21°C° 0 mm 4 mps 754 mmHg 60%
    01:00 +21°C° 0 mm 4 mps 754 mmHg 58%
    02:00 +20°C° 0 mm 3 mps 754 mmHg 56%
    03:00 +20°C° 0 mm 3 mps 754 mmHg 57%
    04:00 +20°C° 0 mm 3 mps 754 mmHg 59%
    05:00 +19°C° 0 mm 3 mps 754 mmHg 60%
    06:00 +22°C° 0 mm 3 mps 754 mmHg 57%
    07:00 +25°C° 0 mm 3 mps 754 mmHg 53%
    08:00 +27°C° 0 mm 3 mps 755 mmHg 49%
    09:00 +29°C° 0 mm 3 mps 754 mmHg 45%
    10:00 +30°C° 0 mm 2 mps 754 mmHg 41%
    11:00 +32°C° 0 mm 2 mps 754 mmHg 37%
    12:00 +34°C° 0 mm 2 mps 754 mmHg 36%
    13:00 +34°C° 0 mm 2 mps 753 mmHg 35%
    14:00 +34°C° 0 mm 2 mps 753 mmHg 34%
    15:00 +32°C° 0 mm 2 mps 753 mmHg 38%
    16:00 +31°C° 0 mm 2 mps 753 mmHg 43%
    17:00 +30°C° 0 mm 2 mps 752 mmHg 48%
    18:00 +28°C° 0 mm 2 mps 753 mmHg 52%
    19:00 +27°C° 0 mm 2 mps 753 mmHg 56%
    20:00 +25°C° 0 mm 1 mps 753 mmHg 60%
    21:00 +25°C° 0 mm 1 mps 753 mmHg 62%
    22:00 +24°C° 0 mm 1 mps 753 mmHg 63%
    23:00 +24°C° 0 mm 1 mps 753 mmHg 64%

    28 May, Thursday

    Time Temperature Precipitation Wind Pressure Humidity
    00:00 +23°C° 0 mm 1 mps 753 mmHg 66%
    01:00 +23°C° 0 mm 1 mps 753 mmHg 67%
    02:00 +23°C° 0 mm 1 mps 753 mmHg 69%
    03:00 +23°C° 0 mm 1 mps 753 mmHg 69%
    04:00 +23°C° 0 mm 1 mps 753 mmHg 70%
    05:00 +23°C° 0 mm 1 mps 753 mmHg 71%
    06:00 +25°C° 0 mm 1 mps 753 mmHg 64%
    07:00 +28°C° 0 mm 1 mps 753 mmHg 56%
    08:00 +30°C° 0 mm 1 mps 753 mmHg 48%
    09:00 +31°C° 0 mm 1 mps 753 mmHg 44%
    10:00 +33°C° 0 mm 1 mps 753 mmHg 40%
    11:00 +35°C° 0 mm 2 mps 753 mmHg 36%
    12:00 +34°C° 0.1 mm 2 mps 752 mmHg 39%
    13:00 +33°C° 0.1 mm 3 mps 752 mmHg 42%
    14:00 +31°C° 0.1 mm 3 mps 752 mmHg 45%
    15:00 +30°C° 0 mm 3 mps 752 mmHg 48%
    16:00 +29°C° 0 mm 2 mps 752 mmHg 51%
    17:00 +28°C° 0 mm 2 mps 752 mmHg 54%
    18:00 +27°C° 0 mm 2 mps 752 mmHg 58%
    19:00 +26°C° 0 mm 2 mps 752 mmHg 61%
    20:00 +24°C° 0 mm 2 mps 752 mmHg 65%
    21:00 +24°C° 0 mm 1 mps 752 mmHg 66%
    22:00 +23°C° 0 mm 1 mps 752 mmHg 68%
    23:00 +22°C° 0 mm 1 mps 752 mmHg 69%

    29 May, Friday

    Time Temperature Precipitation Wind Pressure Humidity
    00:00 +22°C° 0 mm 1 mps 752 mmHg 70%
    01:00 +22°C° 0 mm 1 mps 752 mmHg 71%
    02:00 +22°C° 0 mm 1 mps 751 mmHg 71%
    03:00 +22°C° 0 mm 1 mps 751 mmHg 71%
    04:00 +22°C° 0 mm 1 mps 751 mmHg 71%
    05:00 +22°C° 0 mm 1 mps 751 mmHg 71%
    06:00 +25°C° 0 mm 1 mps 751 mmHg 64%
    07:00 +27°C° 0 mm 1 mps 751 mmHg 57%
    08:00 +30°C° 0 mm 1 mps 751 mmHg 50%
    09:00 +31°C° 0 mm 1 mps 751 mmHg 47%
    10:00 +32°C° 0 mm 2 mps 751 mmHg 43%
    11:00 +34°C° 0 mm 2 mps 751 mmHg 40%
    12:00 +33°C° 0 mm 3 mps 751 mmHg 40%
    13:00 +33°C° 0 mm 4 mps 750 mmHg 41%
    14:00 +33°C° 0 mm 4 mps 750 mmHg 41%
    15:00 +30°C° 0 mm 4 mps 750 mmHg 45%
    16:00 +29°C° 0 mm 3 mps 750 mmHg 48%
    17:00 +28°C° 0 mm 3 mps 750 mmHg 52%
    18:00 +26°C° 0 mm 2 mps 750 mmHg 58%
    19:00 +24°C° 0 mm 2 mps 750 mmHg 65%
    20:00 +22°C° 0 mm 1 mps 751 mmHg 72%
    21:00 +22°C° 0 mm 1 mps 751 mmHg 73%
    22:00 +21°C° 0 mm 1 mps 751 mmHg 75%
    23:00 +21°C° 0 mm 1 mps 750 mmHg 76%

    30 May, Saturday

    Time Temperature Precipitation Wind Pressure Humidity
    00:00 +20°C° 0 mm 1 mps 750 mmHg 77%
    01:00 +20°C° 0 mm 1 mps 750 mmHg 77%
    02:00 +20°C° 0 mm 1 mps 749 mmHg 77%
    03:00 +20°C° 0 mm 1 mps 749 mmHg 77%
    04:00 +19°C° 0 mm 0 mps 749 mmHg 77%
    05:00 +19°C° 0 mm 0 mps 749 mmHg 77%
    06:00 +23°C° 0 mm 1 mps 749 mmHg 69%
    07:00 +26°C° 0 mm 1 mps 750 mmHg 62%
    08:00 +28°C° 0 mm 1 mps 750 mmHg 55%
    09:00 +29°C° 0 mm 1 mps 749 mmHg 51%
    10:00 +30°C° 0 mm 2 mps 749 mmHg 47%
    11:00 +31°C° 0 mm 2 mps 749 mmHg 44%
    12:00 +30°C° 0 mm 2 mps 749 mmHg 44%
    13:00 +30°C° 0 mm 3 mps 749 mmHg 45%
    14:00 +30°C° 0 mm 4 mps 748 mmHg 46%
    15:00 +28°C° 0 mm 3 mps 748 mmHg 51%
    16:00 +27°C° 0 mm 2 mps 748 mmHg 57%
    17:00 +26°C° 0 mm 2 mps 748 mmHg 62%
    18:00 +24°C° 0 mm 2 mps 748 mmHg 69%
    19:00 +22°C° 0 mm 1 mps 748 mmHg 76%
    20:00 +21°C° 0 mm 1 mps 748 mmHg 83%
    21:00 +20°C° 0 mm 1 mps 748 mmHg 85%
    22:00 +20°C° 0 mm 1 mps 748 mmHg 87%
    23:00 +17°C° 0 mm 0 mps 748 mmHg 88%
    Show more